Location: Unspecified
(0.0000°N, 0.0000°E)
Time: 08:28:26
(UTC+00:00)

NOSS 3-4 (C) - Visible Passes

Search period start: 09 June 2026 00:00
Search period end: 19 June 2026 00:00
Orbit: 773 x 1438 km, 63.4° (Epoch: 26 December)

Date Brightness Start Highest point End Pass type
(mag) Time Alt. Az. Time Alt. Az. Time Alt. Az.
9 Jun 4.2 05:23:38 10° S 05:29:03 45° ESE 05:34:01 10° NE visible
9 Jun 5.9 18:49:00 10° WNW 18:56:06 30° WSW 19:03:31 10° S visible
10 Jun 5.3 04:39:52 10° SSE 04:44:04 21° ESE 04:48:00 10° ENE visible
11 Jun 6.8 19:15:29 10° WSW 19:17:17 11° WSW 19:19:05 10° SW visible
12 Jun 3.3 04:59:15 10° SSW 05:04:54 71° ESE 05:10:06 10° NNE visible
12 Jun 6.4 18:26:01 10° WNW 18:32:05 21° WSW 18:38:22 10° SSW visible
13 Jun 4.6 04:15:43 13° S 04:19:59 32° ESE 04:24:39 10° NE visible
14 Jun 5.5 03:33:03 13° SE 03:34:58 15° ESE 03:38:00 10° E visible
14 Jun 3.9 05:20:38 10° SW 05:25:32 33° WNW 05:30:12 10° N visible
15 Jun 3.0 04:37:48 28° SSW 04:40:44 73° WNW 04:45:56 10° NNE visible
16 Jun 3.7 03:55:00 46° SE 03:55:51 51° ESE 04:00:56 10° NE visible
17 Jun 5.1 03:12:10 22° E 03:12:10 22° E 03:15:06 10° ENE visible
17 Jun 4.4 04:59:38 18° W 05:01:21 21° WNW 05:05:13 10° NNW visible
18 Jun 3.4 04:16:43 45° WNW 04:16:43 45° WNW 04:21:31 10° N visible
